| time (UTC) | temp F | wind direction | speed MPH | gust MPH | rain 1hr in | rain 24hr in | rain mn in | humidity % | barometer mb |
| 20260503172556 | 75 | 80 | 0.0 | 0.0 | 0.00 | 0.00 | 0.00 | 53 | 1015.6 |
| 20260503172054 | 74 | 64 | 0.0 | 0.0 | 0.00 | 0.00 | 0.00 | 54 | 1015.9 |
| 20260503171550 | 74 | 81 | 0.0 | 0.0 | 0.00 | 0.00 | 0.00 | 55 | 1015.8 |
| 20260503171048 | 73 | 78 | 0.0 | 1.0 | 0.00 | 0.00 | 0.00 | 55 | 1015.7 |
| 20260503170543 | 73 | 107 | 1.0 | 2.0 | 0.00 | 0.00 | 0.00 | 57 | 1015.7 |
| 20260503150936 | 61 | 102 | 0.0 | 0.0 | 0.00 | 0.00 | 0.00 | 83 | 1016.4 |
| 20260503150433 | 60 | 113 | 0.0 | 0.0 | 0.00 | 0.00 | 0.00 | 83 | 1016.3 |
| 20260503131326 | 55 | 119 | 0.0 | 0.0 | 0.00 | 0.00 | 0.00 | 94 | 1016.0 |
| 20260503130824 | 55 | 113 | 0.0 | 0.0 | 0.00 | 0.00 | 0.00 | 94 | 1016.1 |
| 20260503130321 | 55 | 124 | 0.0 | 0.0 | 0.00 | 0.00 | 0.00 | 94 | 1015.9 |
| 20260503110714 | 56 | 90 | 0.0 | 0.0 | 0.00 | 0.00 | 0.00 | 94 | 1016.2 |
| 20260503110211 | 56 | 145 | 0.0 | 0.0 | 0.00 | 0.00 | 0.00 | 95 | 1016.2 |
| 20260503100138 | 55 | 110 | 0.0 | 0.0 | 0.00 | 0.00 | 0.00 | 96 | 1016.3 |
| 20260503081532 | 55 | 117 | 0.0 | 0.0 | 0.00 | 0.00 | 0.00 | 93 | 1017.0 |
| 20260503081030 | 55 | 117 | 0.0 | 0.0 | 0.00 | 0.00 | 0.00 | 93 | 1016.9 |
| 20260503080526 | 56 | 117 | 0.0 | 0.0 | 0.00 | 0.00 | 0.00 | 93 | 1016.7 |
| 20260503072500 | 57 | 115 | 0.0 | 0.0 | 0.00 | 0.00 | 0.00 | 90 | 1016.9 |
| 20260503071957 | 57 | 115 | 0.0 | 0.0 | 0.00 | 0.00 | 0.00 | 90 | 1016.7 |
| 20260503071454 | 57 | 114 | 0.0 | 0.0 | 0.00 | 0.00 | 0.00 | 90 | 1016.8 |
| 20260503070949 | 57 | 128 | 0.0 | 0.0 | 0.00 | 0.00 | 0.00 | 90 | 1016.7 |
| 20260503070447 | 57 | 104 | 0.0 | 0.0 | 0.00 | 0.00 | 0.00 | 90 | 1016.9 |
| 20260503054906 | 59 | 142 | 0.0 | 0.0 | 0.00 | 0.01 | 0.01 | 88 | 1017.0 |
| 20260503054402 | 59 | 142 | 0.0 | 0.0 | 0.00 | 0.01 | 0.01 | 87 | 1017.0 |
| 20260503053900 | 59 | 142 | 0.0 | 0.0 | 0.00 | 0.01 | 0.01 | 87 | 1017.1 |
| 20260503053358 | 59 | 143 | 0.0 | 0.0 | 0.00 | 0.01 | 0.01 | 87 | 1017.1 |
| 20260503052854 | 60 | 127 | 0.0 | 0.0 | 0.00 | 0.01 | 0.01 | 86 | 1017.2 |
| 20260503052351 | 60 | 125 | 0.0 | 0.0 | 0.00 | 0.01 | 0.01 | 84 | 1016.9 |
| 20260503051847 | 60 | 149 | 0.0 | 0.0 | 0.00 | 0.01 | 0.01 | 84 | 1017.0 |
| 20260503051344 | 61 | 153 | 0.0 | 1.0 | 0.00 | 0.01 | 0.01 | 83 | 1017.0 |
| 20260503050841 | 62 | 124 | 0.0 | 0.0 | 0.00 | 0.01 | 0.01 | 81 | 1017.0 |
| 20260503050337 | 62 | 102 | 0.0 | 0.0 | 0.00 | 0.01 | 0.01 | 81 | 1016.8 |
| 20260503045834 | 62 | 110 | 0.0 | 0.0 | 0.00 | 0.01 | 0.01 | 80 | 1017.1 |
| 20260503045332 | 62 | 139 | 0.0 | 0.0 | 0.00 | 0.01 | 0.01 | 79 | 1016.7 |
| 20260503044828 | 63 | 112 | 0.0 | 0.0 | 0.00 | 0.01 | 0.01 | 79 | 1016.4 |
| 20260503044325 | 63 | 98 | 0.0 | 0.0 | 0.00 | 0.01 | 0.01 | 79 | 1016.7 |
| 20260503043822 | 63 | 102 | 0.0 | 0.0 | 0.00 | 0.01 | 0.01 | 78 | 1016.6 |
| 20260503043319 | 63 | 115 | 0.0 | 0.0 | 0.00 | 0.01 | 0.01 | 78 | 1016.4 |
| 20260503042815 | 63 | 113 | 0.0 | 0.0 | 0.00 | 0.01 | 0.01 | 77 | 1016.6 |
| 20260503042313 | 63 | 108 | 0.0 | 0.0 | 0.00 | 0.01 | 0.01 | 77 | 1016.3 |
| 20260503041808 | 63 | 101 | 0.0 | 1.0 | 0.00 | 0.01 | 0.01 | 77 | 1016.5 |
| 20260503041306 | 63 | 88 | 0.0 | 0.0 | 0.00 | 0.01 | 0.01 | 77 | 1016.5 |
| 20260503040804 | 63 | 112 | 0.0 | 0.0 | 0.00 | 0.01 | 0.01 | 77 | 1016.3 |
| 20260503040301 | 63 | 112 | 0.0 | 0.0 | 0.00 | 0.01 | 0.01 | 77 | 1016.4 |
| 20260503035757 | 63 | 108 | 0.0 | 0.0 | 0.00 | 0.01 | 0.01 | 77 | 1016.5 |
| 20260503035255 | 63 | 85 | 0.0 | 0.0 | 0.00 | 0.01 | 0.01 | 78 | 1016.5 |
| 20260503034752 | 63 | 86 | 0.0 | 0.0 | 0.00 | 0.01 | 0.01 | 78 | 1016.4 |
| 20260503034249 | 64 | 85 | 0.0 | 0.0 | 0.00 | 0.01 | 0.01 | 77 | 1016.5 |
| 20260503033746 | 64 | 85 | 0.0 | 0.0 | 0.00 | 0.01 | 0.01 | 77 | 1016.6 |
| 20260503033244 | 64 | 85 | 0.0 | 0.0 | 0.00 | 0.01 | 0.01 | 77 | 1016.5 |
| 20260503032742 | 64 | 85 | 0.0 | 0.0 | 0.00 | 0.01 | 0.01 | 76 | 1016.2 |
| 20260503032240 | 64 | 86 | 0.0 | 0.0 | 0.00 | 0.01 | 0.01 | 76 | 1016.3 |
| 20260503031737 | 64 | 94 | 0.0 | 0.0 | 0.00 | 0.01 | 0.01 | 76 | 1016.1 |
| 20260503031235 | 64 | 94 | 0.0 | 0.0 | 0.00 | 0.01 | 0.01 | 75 | 1016.1 |
| 20260503030731 | 65 | 94 | 0.0 | 0.0 | 0.00 | 0.01 | 0.01 | 75 | 1016.0 |
| 20260503030228 | 65 | 105 | 0.0 | 0.0 | 0.00 | 0.01 | 0.01 | 75 | 1016.0 |
| 20260503025724 | 64 | 88 | 0.0 | 0.0 | 0.00 | 0.01 | 0.01 | 75 | 1016.1 |
| 20260503025222 | 64 | 87 | 0.0 | 0.0 | 0.00 | 0.01 | 0.01 | 76 | 1016.0 |
| 20260503024719 | 64 | 99 | 0.0 | 0.0 | 0.00 | 0.01 | 0.01 | 76 | 1016.0 |
| 20260503024216 | 64 | 125 | 0.0 | 0.0 | 0.00 | 0.01 | 0.01 | 76 | 1016.1 |
| 20260503023713 | 65 | 102 | 0.0 | 0.0 | 0.00 | 0.01 | 0.01 | 76 | 1016.3 |
| 20260503023209 | 65 | 90 | 0.0 | 0.0 | 0.00 | 0.01 | 0.01 | 75 | 1016.2 |
| 20260503022706 | 65 | 157 | 0.0 | 0.0 | 0.00 | 0.01 | 0.01 | 75 | 1016.6 |
| 20260503022205 | 65 | 134 | 0.0 | 0.0 | 0.00 | 0.01 | 0.01 | 74 | 1016.4 |
| 20260503021703 | 65 | 134 | 0.0 | 0.0 | 0.00 | 0.01 | 0.01 | 74 | 1016.7 |
| 20260503021159 | 66 | 126 | 0.0 | 0.0 | 0.00 | 0.01 | 0.01 | 74 | 1017.0 |
| 20260503020656 | 66 | 102 | 1.0 | 1.0 | 0.00 | 0.01 | 0.01 | 73 | 1017.2 |
| 20260503020154 | 66 | 75 | 1.0 | 2.0 | 0.00 | 0.01 | 0.01 | 73 | 1017.4 |
| 20260503015650 | 66 | 67 | 2.0 | 2.0 | 0.00 | 0.01 | 0.01 | 72 | 1017.2 |
| 20260503015147 | 66 | 16 | 1.0 | 1.0 | 0.00 | 0.01 | 0.01 | 73 | 1017.3 |
| 20260503014643 | 66 | 69 | 1.0 | 1.0 | 0.00 | 0.01 | 0.01 | 73 | 1017.1 |
| 20260503014141 | 67 | 63 | 0.0 | 0.0 | 0.00 | 0.01 | 0.01 | 72 | 1016.6 |
| 20260503013638 | 67 | 66 | 0.0 | 0.0 | 0.00 | 0.01 | 0.01 | 72 | 1016.4 |
| 20260503013136 | 67 | 115 | 0.0 | 0.0 | 0.00 | 0.01 | 0.01 | 72 | 1016.4 |
| 20260503012633 | 67 | 98 | 0.0 | 0.0 | 0.00 | 0.01 | 0.01 | 73 | 1016.1 |
| 20260503012130 | 67 | 67 | 1.0 | 1.0 | 0.00 | 0.01 | 0.01 | 73 | 1016.3 |
| 20260503011626 | 66 | 84 | 1.0 | 1.0 | 0.00 | 0.01 | 0.01 | 72 | 1016.2 |
| 20260503011124 | 67 | 181 | 0.0 | 1.0 | 0.00 | 0.01 | 0.01 | 73 | 1016.2 |
| 20260503010619 | 67 | 99 | 0.0 | 0.0 | 0.00 | 0.01 | 0.01 | 71 | 1016.2 |
| 20260503010117 | 67 | 130 | 0.0 | 0.0 | 0.00 | 0.01 | 0.01 | 72 | 1016.1 |
| 20260503005614 | 67 | 107 | 0.0 | 0.0 | 0.00 | 0.01 | 0.01 | 71 | 1016.4 |
| 20260503005111 | 68 | 75 | 0.0 | 1.0 | 0.00 | 0.01 | 0.01 | 70 | 1016.1 |
| 20260503004607 | 69 | 215 | 0.0 | 0.0 | 0.00 | 0.01 | 0.01 | 69 | 1016.3 |
| 20260503004106 | 69 | 136 | 0.0 | 0.0 | 0.00 | 0.01 | 0.01 | 68 | 1016.1 |
| 20260503003602 | 69 | 102 | 0.0 | 0.0 | 0.00 | 0.01 | 0.01 | 66 | 1015.9 |
| 20260503003059 | 69 | 141 | 0.0 | 0.0 | 0.00 | 0.01 | 0.01 | 66 | 1016.0 |
| 20260503002556 | 69 | 192 | 0.0 | 0.0 | 0.00 | 0.01 | 0.01 | 67 | 1016.0 |
| 20260503002053 | 68 | 127 | 0.0 | 0.0 | 0.00 | 0.01 | 0.01 | 69 | 1016.1 |
| 20260503001549 | 69 | 197 | 0.0 | 1.0 | 0.00 | 0.01 | 0.01 | 67 | 1015.9 |
| 20260503001047 | 69 | 103 | 0.0 | 0.0 | 0.00 | 0.01 | 0.01 | 67 | 1016.0 |
| 20260503000544 | 69 | 107 | 0.0 | 0.0 | 0.00 | 0.01 | 0.01 | 66 | 1015.9 |
| 20260503000041 | 69 | 155 | 0.0 | 0.0 | 0.00 | 0.01 | 0.01 | 65 | 1016.1 |
| 20260502235537 | 70 | 113 | 0.0 | 0.0 | 0.00 | 0.01 | 0.01 | 62 | 1016.2 |
| 20260502235036 | 70 | 86 | 0.0 | 0.0 | 0.00 | 0.01 | 0.01 | 62 | 1015.9 |
| 20260502234531 | 71 | 170 | 0.0 | 0.0 | 0.00 | 0.01 | 0.01 | 61 | 1016.0 |
| 20260502234029 | 70 | 159 | 0.0 | 1.0 | 0.00 | 0.01 | 0.01 | 61 | 1016.1 |
| 20260502233529 | 70 | 143 | 0.0 | 0.0 | 0.00 | 0.01 | 0.01 | 62 | 1016.1 |
| 20260502233027 | 70 | 142 | 0.0 | 0.0 | 0.00 | 0.01 | 0.01 | 62 | 1016.4 |
| 20260502232523 | 71 | 160 | 0.0 | 0.0 | 0.00 | 0.01 | 0.01 | 60 | 1016.3 |
| 20260502232020 | 71 | 158 | 0.0 | 0.0 | 0.00 | 0.01 | 0.01 | 61 | 1016.4 |
| 20260502231517 | 71 | 194 | 0.0 | 0.0 | 0.00 | 0.01 | 0.01 | 59 | 1016.6 |
| 20260502231015 | 70 | 126 | 0.0 | 0.0 | 0.00 | 0.01 | 0.01 | 60 | 1016.6 |
| 20260502230513 | 70 | 122 | 0.0 | 0.0 | 0.00 | 0.01 | 0.01 | 61 | 1016.6 |
| 20260502230011 | 70 | 93 | 0.0 | 0.0 | 0.00 | 0.01 | 0.01 | 61 | 1016.9 |
| 20260502225511 | 70 | 111 | 0.0 | 0.0 | 0.00 | 0.01 | 0.01 | 62 | 1017.0 |
| 20260502225009 | 69 | 90 | 0.0 | 1.0 | 0.00 | 0.01 | 0.01 | 61 | 1016.9 |
| 20260502224505 | 69 | 80 | 0.0 | 0.0 | 0.00 | 0.01 | 0.01 | 62 | 1016.8 |
| 20260502224002 | 70 | 61 | 0.0 | 0.0 | 0.00 | 0.01 | 0.01 | 61 | 1017.0 |
| 20260502223459 | 70 | 100 | 0.0 | 0.0 | 0.00 | 0.01 | 0.01 | 61 | 1017.0 |
| 20260502222958 | 70 | 225 | 1.0 | 1.0 | 0.00 | 0.01 | 0.01 | 61 | 1017.2 |
| 20260502222455 | 70 | 182 | 1.0 | 1.0 | 0.00 | 0.01 | 0.01 | 61 | 1017.2 |
| 20260502221950 | 71 | 140 | 0.0 | 0.0 | 0.00 | 0.01 | 0.01 | 59 | 1017.3 |
| 20260502221447 | 70 | 99 | 0.0 | 0.0 | 0.00 | 0.01 | 0.01 | 61 | 1017.3 |
| 20260502220944 | 69 | 85 | 0.0 | 0.0 | 0.00 | 0.01 | 0.01 | 63 | 1017.4 |
| 20260502220440 | 69 | 96 | 0.0 | 0.0 | 0.00 | 0.01 | 0.01 | 63 | 1017.6 |
| 20260502215937 | 68 | 80 | 1.0 | 1.0 | 0.00 | 0.01 | 0.01 | 63 | 1017.5 |
| 20260502215434 | 69 | 71 | 0.0 | 1.0 | 0.00 | 0.01 | 0.01 | 61 | 1017.6 |
| 20260502214931 | 69 | 135 | 0.0 | 0.0 | 0.00 | 0.01 | 0.01 | 63 | 1017.8 |
| 20260502214428 | 68 | 172 | 0.0 | 1.0 | 0.00 | 0.01 | 0.01 | 64 | 1017.5 |
| 20260502213925 | 68 | 130 | 0.0 | 0.0 | 0.00 | 0.01 | 0.01 | 64 | 1018.0 |
| 20260502213421 | 68 | 78 | 0.0 | 0.0 | 0.00 | 0.01 | 0.01 | 64 | 1017.9 |
| 20260502212920 | 68 | 98 | 0.0 | 0.0 | 0.00 | 0.01 | 0.01 | 63 | 1018.0 |
| 20260502212419 | 67 | 130 | 0.0 | 0.0 | 0.00 | 0.01 | 0.01 | 64 | 1018.1 |
| 20260502211915 | 66 | 71 | 0.0 | 0.0 | 0.00 | 0.01 | 0.01 | 66 | 1018.3 |
| 20260502211411 | 64 | 156 | 1.0 | 1.0 | 0.00 | 0.01 | 0.01 | 68 | 1018.2 |
| 20260502210909 | 64 | 167 | 1.0 | 1.0 | 0.00 | 0.01 | 0.01 | 70 | 1018.3 |
| 20260502210405 | 63 | 80 | 1.0 | 1.0 | 0.00 | 0.01 | 0.01 | 70 | 1018.5 |
| 20260502205903 | 63 | 46 | 1.0 | 1.0 | 0.00 | 0.01 | 0.01 | 70 | 1018.5 |
| 20260502205358 | 63 | 70 | 0.0 | 0.0 | 0.00 | 0.01 | 0.01 | 70 | 1018.6 |
| 20260502204856 | 64 | 86 | 1.0 | 1.0 | 0.00 | 0.01 | 0.01 | 69 | 1018.8 |
| 20260502204353 | 64 | 70 | 1.0 | 1.0 | 0.00 | 0.01 | 0.01 | 69 | 1018.7 |
| 20260502203850 | 63 | 78 | 0.0 | 0.0 | 0.00 | 0.01 | 0.01 | 70 | 1018.9 |
| 20260502203348 | 63 | 180 | 0.0 | 0.0 | 0.00 | 0.01 | 0.01 | 70 | 1018.9 |
| 20260502202843 | 63 | 104 | 0.0 | 0.0 | 0.00 | 0.01 | 0.01 | 71 | 1019.0 |
| 20260502202341 | 62 | 162 | 0.0 | 0.0 | 0.00 | 0.01 | 0.01 | 73 | 1019.2 |
| 20260502201839 | 61 | 132 | 0.0 | 0.0 | 0.00 | 0.01 | 0.01 | 74 | 1019.4 |
| 20260502201335 | 61 | 42 | 1.0 | 1.0 | 0.00 | 0.01 | 0.01 | 74 | 1019.5 |
| 20260502200831 | 60 | 117 | 0.0 | 0.0 | 0.00 | 0.01 | 0.01 | 75 | 1019.3 |
| 20260502200327 | 59 | 83 | 0.0 | 1.0 | 0.00 | 0.01 | 0.01 | 76 | 1019.2 |
| 20260502195825 | 60 | 105 | 0.0 | 1.0 | 0.00 | 0.01 | 0.01 | 75 | 1019.6 |
| 20260502195321 | 59 | 195 | 3.0 | 3.0 | 0.00 | 0.01 | 0.01 | 76 | 1019.8 |
| 20260502194818 | 60 | 78 | 0.0 | 1.0 | 0.00 | 0.01 | 0.01 | 75 | 1019.5 |
| 20260502194315 | 59 | 58 | 0.0 | 1.0 | 0.00 | 0.01 | 0.01 | 76 | 1019.5 |
| 20260502193811 | 59 | 123 | 0.0 | 0.0 | 0.00 | 0.01 | 0.01 | 78 | 1019.5 |
| 20260502193308 | 59 | 187 | 1.0 | 2.0 | 0.00 | 0.01 | 0.01 | 79 | 1019.5 |
| 20260502192804 | 58 | 70 | 0.0 | 1.0 | 0.00 | 0.01 | 0.01 | 77 | 1019.6 |
| 20260502192304 | 58 | 42 | 0.0 | 1.0 | 0.00 | 0.01 | 0.01 | 79 | 1019.8 |
| 20260502191758 | 58 | 123 | 0.0 | 0.0 | 0.00 | 0.01 | 0.01 | 80 | 1020.0 |
| 20260502191256 | 57 | 135 | 0.0 | 0.0 | 0.00 | 0.01 | 0.01 | 81 | 1019.9 |
| 20260502190753 | 57 | 114 | 0.0 | 0.0 | 0.00 | 0.01 | 0.01 | 81 | 1019.9 |
| 20260502190250 | 57 | 85 | 1.0 | 1.0 | 0.00 | 0.01 | 0.01 | 81 | 1019.9 |
| 20260502185751 | 57 | 131 | 0.0 | 0.0 | 0.00 | 0.01 | 0.01 | 83 | 1020.2 |
| 20260502185247 | 57 | 145 | 0.0 | 0.0 | 0.00 | 0.01 | 0.01 | 81 | 1020.5 |
| 20260502184744 | 56 | 139 | 0.0 | 0.0 | 0.00 | 0.01 | 0.01 | 82 | 1020.2 |
| 20260502184239 | 56 | 135 | 0.0 | 1.0 | 0.00 | 0.01 | 0.01 | 84 | 1020.5 |
| 20260502183737 | 56 | 134 | 0.0 | 0.0 | 0.00 | 0.01 | 0.01 | 85 | 1020.2 |
| 20260502183232 | 56 | 133 | 0.0 | 1.0 | 0.00 | 0.01 | 0.01 | 84 | 1020.3 |
| 20260502182727 | 56 | 162 | 1.0 | 1.0 | 0.00 | 0.01 | 0.01 | 84 | 1020.2 |
| 20260502182223 | 55 | 120 | 0.0 | 0.0 | 0.05 | 0.01 | 0.01 | 85 | 1020.1 |
| 20260502181720 | 55 | 119 | 0.0 | 0.0 | 0.05 | 0.01 | 0.01 | 85 | 1020.2 |
| 20260502181220 | 55 | 125 | 0.0 | 0.0 | 0.00 | 0.00 | 0.00 | 84 | 1020.2 |
| 20260502180716 | 55 | 95 | 0.0 | 0.0 | 0.00 | 0.00 | 0.00 | 81 | 1020.4 |
| 20260502180214 | 55 | 119 | 0.0 | 0.0 | 0.00 | 0.00 | 0.00 | 80 | 1020.5 |